{"data":{"norad_id":67168,"epoch":"2026-09-20T01:25:48.995040Z","epoch_age_seconds":116546,"freshness":"FRESH","line1":"1 67168U 25303F   26263.05959485  .00009071  00000+0  33874-3 0  9999","line2":"2 67168  42.9999 292.8350 0001392 272.3442  87.7250 15.27582235 42465","mean_motion":15.27582235,"eccentricity":0.0001392,"inclination_deg":42.9999,"raan_deg":292.835,"arg_perigee_deg":272.3442,"mean_anomaly_deg":87.725,"bstar":0.00033874,"rev_number":4246,"period_min":94.266610792315,"perigee_km":482.08732748079,"apogee_km":483.99747982676,"semimajor_km":6861.1794036538,"source":"CELESTRAK","updated_at":"2026-09-21T09:00:36.110930Z"}}